TimeMST,TemperatureF,Dew PointF,Humidity,Sea Level PressureIn,VisibilityMPH,Wind Direction,Wind SpeedMPH,Gust SpeedMPH,PrecipitationIn,Events,Conditions,WindDirDegrees,DateUTC
12:53 AM,-13.0,-16.1,86,30.59,9.0,SSE,3.5,-,N/A,,Clear,150,2014-01-06 07:53:00
1:53 AM,-9.0,-14.1,79,30.58,10.0,Calm,Calm,-,N/A,,Clear,0,2014-01-06 08:53:00
2:53 AM,-8.0,-11.9,83,30.61,10.0,Calm,Calm,-,N/A,,Clear,0,2014-01-06 09:53:00
3:53 AM,-9.9,-13.0,86,30.62,10.0,Calm,Calm,-,N/A,,Clear,0,2014-01-06 10:53:00
4:53 AM,-11.9,-15.0,86,30.63,10.0,Calm,Calm,-,N/A,,Clear,0,2014-01-06 11:53:00
5:53 AM,-9.9,-14.1,82,30.62,10.0,NW,3.5,-,N/A,,Clear,320,2014-01-06 12:53:00
6:53 AM,-11.9,-16.1,82,30.64,10.0,Calm,Calm,-,N/A,,Clear,0,2014-01-06 13:53:00
7:53 AM,-11.9,-16.1,82,30.65,10.0,Calm,Calm,-,N/A,,Clear,0,2014-01-06 14:53:00
8:53 AM,-6.0,-9.9,83,30.67,10.0,Calm,Calm,-,N/A,,Clear,0,2014-01-06 15:53:00
9:53 AM,-7.1,-8.0,96,30.68,9.0,Calm,Calm,-,N/A,,Clear,0,2014-01-06 16:53:00
10:53 AM,-0.9,-6.0,79,30.66,10.0,Calm,Calm,-,N/A,,Clear,0,2014-01-06 17:53:00
11:53 AM,-2.0,-6.0,83,30.58,10.0,ESE,5.8,-,N/A,,Clear,110,2014-01-06 18:53:00
12:53 PM,1.0,-5.1,75,30.56,10.0,WNW,5.8,-,N/A,,Clear,300,2014-01-06 19:53:00
1:53 PM,3.0,-2.9,76,30.51,10.0,East,3.5,-,N/A,,Clear,90,2014-01-06 20:53:00
2:53 PM,3.9,-2.9,73,30.50,10.0,Calm,Calm,-,N/A,,Clear,0,2014-01-06 21:53:00
3:53 PM,1.9,-2.9,80,30.50,10.0,Calm,Calm,-,N/A,,Clear,0,2014-01-06 22:53:00
4:53 PM,1.0,-5.1,75,30.50,10.0,Calm,Calm,-,N/A,,Clear,0,2014-01-06 23:53:00
5:53 PM,1.0,-4.0,79,30.48,8.0,NW,4.6,-,N/A,,Clear,310,2014-01-07 00:53:00
6:53 PM,-0.9,-5.1,83,30.50,9.0,South,3.5,-,N/A,,Clear,170,2014-01-07 01:53:00
7:53 PM,-2.9,-6.0,87,30.50,8.0,Calm,Calm,-,N/A,,Clear,0,2014-01-07 02:53:00
8:53 PM,7.0,1.0,77,30.42,10.0,Calm,Calm,-,N/A,,Clear,0,2014-01-07 03:53:00
9:53 PM,6.1,1.0,80,30.41,9.0,WSW,4.6,-,N/A,,Clear,240,2014-01-07 04:53:00
10:53 PM,3.9,-0.9,80,30.37,8.0,SE,4.6,-,N/A,,Clear,140,2014-01-07 05:53:00
11:53 PM,1.9,-2.0,83,30.37,10.0,NW,9.2,-,N/A,,Clear,320,2014-01-07 06:53:00